Flag Weather past 2 weeks in Barcelona, Barcelona, Spain

Now
59 °F

Passing clouds.


Feels Like: 59 °F
Forecast: 57 / 62 °F
Wind: 2 mph from North

Location: Barcelona Airport

Current Time: Nov 28, 2014 at 9:53:19 AM

Latest Report: Nov 28, 2014 at 9:00 AM


Visibility: 6 mi

Pressure: 29.39 "Hg

Humidity: 94%

Dew point: 57 °F

Location of BarcelonaLocation

Historic Weather in Barcelona — Graph

°F

Barcelona temperature yesterday

Maximum temperature yesterday: 64 °F (at 2:00 PM)
Minimum temperature yesterday: 52 °F (at 4:30 AM)
Average temperature yesterday: 57 °F

Past Weeks' High & Low Weather Summary

 TemperatureHumidityPressure
High72 °F (Nov 23, 3:00 PM)100% (Nov 15, 12:30 AM)30.18 "Hg (Nov 15, 12:30 AM)
Low46 °F (Nov 18, 5:00 AM)37% (Nov 16, 1:30 PM)29.39 "Hg (Nov 28, 5:00 AM)
Average60 °F77%29.90 "Hg
* Reported Nov 13 8:00 AM — Nov 28 8:30 AM, Barcelona, Weather by CustomWeather, © 2014

Note: Actual official high and low records may vary slightly from our data, if they occured in-between our weather recording intervals... More about our weather records

Advertising

Barcelona weather history for previous 24 hours

 ConditionsComfort  
Time TempWeatherWind HumidityBarometerVisibility
8:30 AM
Nov 28
57 °FPassing clouds.3 mph94%29.39 "Hg6 mi
8:00 AM59 °FScattered clouds.6 mph88%29.39 "Hg6 mi
7:30 AM63 °FPassing clouds.7 mph83%29.39 "Hg6 mi
7:00 AM63 °FPassing clouds.7 mph83%29.39 "Hg6 mi
6:30 AM63 °FPassing clouds.7 mph83%29.39 "Hg6 mi
6:00 AM61 °FPassing clouds.7 mph88%29.39 "Hg5 mi
5:30 AM59 °FPassing clouds.6 mph94%29.39 "Hg5 mi
5:00 AM61 °FPassing clouds.6 mph88%29.39 "Hg5 mi
4:30 AM63 °FLight rain. Passing clouds.12 mph83%29.42 "Hg5 mi
4:00 AM64 °FRain. Passing clouds.13 mph94%29.42 "Hg5 mi
3:30 AM64 °FPassing clouds.14 mph94%29.42 "Hg5 mi
3:00 AM64 °FPassing clouds.14 mph94%29.42 "Hg5 mi
2:30 AM64 °FPassing clouds.13 mph94%29.45 "Hg5 mi
2:00 AM64 °FPassing clouds.12 mph94%29.45 "Hg5 mi
1:30 AM59 °FPassing clouds.6 mph94%29.47 "Hg5 mi
1:00 AM59 °FPassing clouds.5 mph94%29.50 "Hg5 mi
12:30 AM57 °FPassing clouds.7 mph94%29.50 "Hg5 mi
12:00 AM57 °FPassing clouds.7 mph94%29.53 "Hg5 mi
11:30 PM
Nov 27
57 °FPassing clouds.5 mph94%29.53 "Hg5 mi
11:00 PM57 °FPassing clouds.5 mph94%29.53 "Hg5 mi
10:30 PM57 °FPassing clouds.5 mph94%29.56 "Hg5 mi
10:00 PM57 °FPassing clouds.6 mph94%29.56 "Hg4 mi
9:30 PM57 °FPassing clouds.7 mph94%29.56 "Hg4 mi
9:00 PM57 °FPassing clouds.7 mph94%29.56 "Hg4 mi
8:30 PM57 °FPassing clouds.6 mph94%29.59 "Hg4 mi
8:00 PM57 °FPassing clouds.5 mph94%29.59 "Hg4 mi
7:30 PM57 °FPassing clouds.3 mph100%29.59 "Hg4 mi
7:00 PM57 °FPassing clouds.6 mph100%29.59 "Hg5 mi
6:30 PM59 °FPassing clouds.6 mph94%29.62 "Hg6 mi
6:00 PM59 °FPassing clouds.6 mph94%29.62 "HgN/A
5:30 PM59 °FThunderstorms. Passing clouds.7 mph94%29.62 "Hg4 mi
5:00 PM59 °FSprinkles. Scattered clouds.8 mph94%29.59 "Hg3 mi
4:52 PM61 °FRain showers. Scattered clouds.7 mph88%29.62 "Hg5 mi
4:30 PM63 °FScattered clouds.5 mph83%29.62 "HgN/A
4:00 PM63 °FScattered clouds.3 mph83%29.65 "HgN/A
3:30 PM64 °FPassing clouds.2 mph78%29.65 "HgN/A
3:00 PM64 °FPassing clouds.3 mph78%29.65 "HgN/A
2:30 PM64 °FPassing clouds.6 mph78%29.68 "HgN/A
2:00 PM64 °FPassing clouds.5 mph78%29.68 "HgN/A
1:30 PM63 °FPassing clouds.3 mph77%29.68 "HgN/A
1:00 PM59 °FScattered clouds.6 mph82%29.71 "HgN/A
12:30 PM61 °FScattered clouds.6 mph83%29.71 "HgN/A
12:00 PM59 °FPassing clouds.7 mph82%29.74 "HgN/A
11:30 AM57 °FPassing clouds.8 mph88%29.74 "HgN/A
11:00 AM55 °FSprinkles. Scattered clouds.8 mph94%29.77 "HgN/A
10:30 AM54 °FSprinkles. Partly sunny.9 mph94%29.77 "Hg4 mi
10:00 AM54 °FSprinkles. Partly sunny.8 mph88%29.74 "HgN/A
9:30 AM54 °FPassing clouds.7 mph88%29.74 "HgN/A
9:00 AM52 °FPassing clouds.8 mph94%29.77 "HgN/A
Weather by CustomWeather, © 2014

See weather overviewHow to use our weather pages